Lakeland, FL

7:19 PM EDT on August 25, 2016 (GMT -0400)
Lakeland Linder Regional

Weather History for KLAL - September, 2013

Change the Weather History Date:

Monday, September 9, 2013

  Actual Average Record
Temperature  
Mean Temperature 80 °F -  
Max Temperature 89 °F 86 °F 95 °F (1994)
Min Temperature 71 °F 72 °F 68 °F (1997)
Cooling Degree Days 15    
Growing Degree Days 30 (Base 50)    
Moisture  
Dew Point 69 °F    
Average Humidity 75    
Maximum Humidity 94    
Minimum Humidity 40    
Precipitation  
Precipitation 0.00 in - - ()
Sea Level Pressure  
Sea Level Pressure 29.99 in    
Wind  
Wind Speed 4 mph (ENE)    
Max Wind Speed 12 mph    
Max Gust Speed -    
Visibility 13 miles    
Events      
Averages and records for this station are not official NWS values.
T = Trace of Precipitation, MM = Missing Value Source: NWS Daily Summary

Daily Weather History Graph

Daily Weather History Graph

Search for Another Location

Airport or City:

Trip Planner

Search our weather history database for the weather conditions in past years. The results will help you decide how hot, cold, wet, or windy it might be!

Date:

Astronomy

Sep. 09, 2013 Rise Set
Actual Time 7:10 AM EDT 7:39 PM EDT
Civil Twilight 6:46 AM EDT 8:03 PM EDT
Nautical Twilight 6:19 AM EDT 8:30 PM EDT
Astronomical Twilight 5:51 AM EDT 8:58 PM EDT
Moon 11:04 AM EDT (9/9) 10:22 PM EDT (9/9)
Length of Visible Light 13h 16m
Length of Day
12h 28m
Waxing Crescent, 19% of the Moon is Illuminated
Sep 9
Waxing Crescent
Sep 12
First Quarter
Sep 19
Full
Sep 26
Last Quarter
Oct 4
New

Hourly Weather History & Observations

Time (EDT) Temp. Heat Index Dew Point Humidity Pressure Visibility Wind Dir Wind Speed Gust Speed Precip Events Conditions
12:15 AM 77.0 °F - 69.8 °F 78% 30.00 in 10.0 mi Calm Calm - N/A   Clear
12:35 AM 77.0 °F - 69.8 °F 78% 29.99 in 10.0 mi ESE 4.6 mph - N/A   Clear
12:55 AM 77.0 °F - 69.8 °F 78% 29.99 in 10.0 mi East 3.5 mph - N/A   Clear
1:15 AM 77.0 °F - 69.8 °F 78% 29.98 in 10.0 mi East 3.5 mph - N/A   Clear
1:35 AM 75.2 °F - 69.8 °F 83% 29.98 in 10.0 mi NE 4.6 mph - N/A   Clear
1:55 AM 75.2 °F - 69.8 °F 83% 29.98 in 10.0 mi ENE 5.8 mph - N/A   Clear
2:15 AM 75.2 °F - 69.8 °F 83% 29.98 in 10.0 mi East 3.5 mph - N/A   Clear
2:35 AM 75.2 °F - 69.8 °F 83% 29.97 in 10.0 mi Calm Calm - N/A   Clear
2:55 AM 73.4 °F - 69.8 °F 88% 29.96 in 10.0 mi Calm Calm - N/A   Clear
3:15 AM 73.4 °F - 69.8 °F 88% 29.96 in 10.0 mi Calm Calm - N/A   Clear
3:35 AM 73.4 °F - 69.8 °F 88% 29.96 in 10.0 mi Calm Calm - N/A   Clear
3:55 AM 73.4 °F - 71.6 °F 94% 29.95 in 10.0 mi NE 5.8 mph - N/A   Clear
4:15 AM 73.4 °F - 69.8 °F 88% 29.96 in 10.0 mi NNE 3.5 mph - N/A   Clear
4:35 AM 73.4 °F - 71.6 °F 94% 29.96 in 10.0 mi Calm Calm - N/A   Clear
4:55 AM 73.4 °F - 69.8 °F 88% 29.95 in 10.0 mi NE 3.5 mph - N/A   Clear
5:15 AM 73.4 °F - 69.8 °F 88% 29.96 in 10.0 mi NE 3.5 mph - N/A   Clear
5:35 AM 73.4 °F - 69.8 °F 88% 29.96 in 10.0 mi North 3.5 mph - N/A   Clear
5:55 AM 71.6 °F - 69.8 °F 94% 29.97 in 10.0 mi NNE 3.5 mph - N/A   Clear
5:56 AM 73.4 °F - 71.6 °F 94% 29.97 in 12.0 mi Calm Calm - N/A   Clear
6:15 AM 71.6 °F - 69.8 °F 94% 29.98 in 10.0 mi NE 4.6 mph - N/A   Clear
6:35 AM 71.6 °F - 69.8 °F 94% 29.98 in 10.0 mi NNE 4.6 mph - N/A   Clear
6:54 AM 73.4 °F - 71.6 °F 94% 29.98 in 10.0 mi Variable 4.6 mph - N/A   Clear
7:52 AM 73.4 °F - 71.6 °F 94% 30.00 in 10.0 mi NNE 4.6 mph - N/A   Clear
8:50 AM 78.8 °F - 71.6 °F 78% 30.02 in 10.0 mi NE 9.2 mph - N/A   Clear
10:54 AM 84.2 °F 89.6 °F 71.6 °F 66% 30.04 in 15.0 mi East 5.8 mph - N/A   Mostly Cloudy
11:56 AM 87.8 °F 92.6 °F 69.8 °F 55% 30.03 in 15.0 mi ENE 6.9 mph - N/A   Mostly Cloudy
12:50 PM 89.6 °F 92.2 °F 66.2 °F 46% 30.03 in 20.0 mi East 9.2 mph - N/A   Mostly Cloudy
1:50 PM 89.6 °F 93.4 °F 68.0 °F 49% 30.01 in 15.0 mi Calm Calm - N/A   Mostly Cloudy
2:50 PM 89.6 °F 92.2 °F 66.2 °F 46% 29.99 in 20.0 mi East 6.9 mph - N/A   Mostly Cloudy
3:50 PM 89.6 °F 91.1 °F 64.4 °F 43% 29.98 in 20.0 mi East 9.2 mph - N/A   Mostly Cloudy
4:50 PM 89.6 °F 91.1 °F 64.4 °F 43% 29.97 in 20.0 mi ENE 11.5 mph - N/A   Mostly Cloudy
5:50 PM 89.6 °F 90.1 °F 62.6 °F 40% 29.97 in 20.0 mi East 11.5 mph - N/A   Scattered Clouds
6:50 PM 87.8 °F 88.5 °F 62.6 °F 43% 29.97 in 20.0 mi ENE 8.1 mph - N/A   Partly Cloudy
7:50 PM 84.2 °F 85.6 °F 64.4 °F 51% 29.99 in 20.0 mi East 6.9 mph - N/A   Partly Cloudy
8:50 PM 82.4 °F 85.4 °F 68.0 °F 62% 30.01 in 20.0 mi East 6.9 mph - N/A   Clear
9:50 PM 80.6 °F 83.2 °F 68.0 °F 65% 30.04 in 20.0 mi East 6.9 mph - N/A   Clear
10:55 PM 78.8 °F - 69.8 °F 74% 30.05 in 10.0 mi ENE 6.9 mph - N/A   Clear
11:15 PM 77.0 °F - 69.8 °F 78% 30.05 in 10.0 mi ENE 5.8 mph - N/A   Clear
11:35 PM 77.0 °F - 69.8 °F 78% 30.05 in 10.0 mi ENE 10.4 mph - N/A   Clear
11:55 PM 77.0 °F - 69.8 °F 78% 30.05 in 10.0 mi ENE 9.2 mph - N/A   Clear